AAL3025 KEYW-KDCA

Flight info

Callsign AAL3025
Flight time N/A
Altitude 38000
Route BUFTT1 MATLK Q87 ZERBO/N0456F370 Q87 RAYVO Q113 AARNN WAVES CAPSS4
Aircraft A319/M-SDE3FGHIRWY/LB1

Departure

Time N/A
Airport Key West International Airport (KEYW)

Arrival

Time 2026-05-05 04:14
Airport Ronald Reagan Washington National Airport (KDCA)
Time Latitude Longitude Altitude Speed Heading
2026-05-05 03:20 33.73303 -79.97518 37136 ft 478 kts 37°
2026-05-05 03:20 33.75805 -79.94893 37137 ft 477 kts 37°
2026-05-05 03:20 33.79963 -79.90541 37136 ft 477 kts 37°
2026-05-05 03:21 33.85783 -79.84437 37129 ft 477 kts 37°
2026-05-05 03:21 33.90785 -79.79175 37126 ft 478 kts 37°
2026-05-05 03:22 33.95781 -79.73895 37118 ft 478 kts 37°
2026-05-05 03:22 34.00772 -79.68605 37119 ft 478 kts 37°
2026-05-05 03:23 34.05768 -79.63322 37124 ft 477 kts 37°
2026-05-05 03:23 34.10764 -79.58031 37107 ft 477 kts 37°
2026-05-05 03:24 34.15742 -79.52745 37119 ft 477 kts 37°
2026-05-05 03:24 34.20697 -79.47463 37127 ft 477 kts 38°
2026-05-05 03:25 34.25698 -79.42129 37138 ft 477 kts 38°
2026-05-05 03:25 34.30641 -79.36862 37140 ft 477 kts 38°
2026-05-05 03:26 34.35567 -79.31593 37136 ft 477 kts 38°
2026-05-05 03:26 34.40590 -79.26213 37125 ft 477 kts 37°
2026-05-05 03:27 34.46018 -79.21851 37125 ft 468 kts 22°
2026-05-05 03:27 34.51834 -79.18318 37121 ft 468 kts 22°
2026-05-05 03:28 34.57662 -79.14757 37125 ft 469 kts 22°
2026-05-05 03:28 34.63483 -79.11198 37129 ft 469 kts 22°
2026-05-05 03:29 34.69315 -79.07622 37131 ft 469 kts 22°
2026-05-05 03:29 34.75131 -79.04042 37128 ft 469 kts 22°
2026-05-05 03:30 34.80955 -79.00460 37118 ft 469 kts 22°
2026-05-05 03:30 34.86775 -78.96878 37118 ft 468 kts 22°
2026-05-05 03:31 34.92588 -78.93298 37121 ft 468 kts 22°
2026-05-05 03:31 34.98392 -78.89707 37118 ft 468 kts 22°
2026-05-05 03:32 35.04203 -78.86119 37118 ft 468 kts 22°
2026-05-05 03:32 35.10008 -78.82514 37090 ft 468 kts 22°
2026-05-05 03:33 35.15816 -78.78902 37095 ft 468 kts 22°
2026-05-05 03:33 35.21619 -78.75289 37116 ft 468 kts 22°
2026-05-05 03:34 35.27408 -78.71678 37125 ft 467 kts 22°
2026-05-05 03:34 35.33193 -78.68064 37128 ft 467 kts 22°
2026-05-05 03:35 35.38982 -78.64445 37125 ft 467 kts 22°
2026-05-05 03:35 35.44768 -78.60831 37118 ft 466 kts 22°
2026-05-05 03:36 35.50477 -78.57256 37098 ft 466 kts 22°
2026-05-05 03:36 35.56247 -78.53629 37102 ft 466 kts 22°
2026-05-05 03:37 35.62010 -78.50006 37106 ft 465 kts 22°
2026-05-05 03:37 35.67561 -78.46510 37099 ft 465 kts 22°
2026-05-05 03:38 35.73312 -78.42879 37091 ft 464 kts 22°
2026-05-05 03:38 35.79058 -78.39249 37073 ft 464 kts 22°
2026-05-05 03:39 35.84802 -78.35620 37081 ft 464 kts 22°
2026-05-05 03:39 35.90546 -78.31984 37087 ft 464 kts 22°
2026-05-05 03:40 35.96289 -78.28339 37089 ft 464 kts 22°
2026-05-05 03:40 36.02028 -78.24690 37095 ft 464 kts 22°
2026-05-05 03:41 36.07768 -78.21034 37091 ft 464 kts 22°
2026-05-05 03:41 36.13505 -78.17371 37078 ft 464 kts 22°
2026-05-05 03:42 36.19242 -78.13716 37067 ft 464 kts 22°
2026-05-05 03:42 36.24944 -78.10079 37054 ft 464 kts 22°
2026-05-05 03:43 36.30681 -78.06399 37045 ft 464 kts 22°
2026-05-05 03:43 36.36420 -78.02717 37044 ft 465 kts 22°
2026-05-05 03:44 36.42351 -77.99700 37057 ft 460 kts 15°
2026-05-05 03:44 36.48347 -77.96916 37071 ft 460 kts 15°
2026-05-05 03:45 36.54353 -77.94128 37081 ft 460 kts 15°
2026-05-05 03:45 36.60349 -77.91354 37087 ft 460 kts 15°
2026-05-05 03:46 36.66346 -77.88559 37050 ft 460 kts 16°
2026-05-05 03:46 36.72334 -77.85754 37047 ft 460 kts 16°
2026-05-05 03:47 36.78323 -77.82937 37049 ft 460 kts 16°
2026-05-05 03:47 36.84324 -77.80115 37048 ft 460 kts 16°
2026-05-05 03:48 36.90320 -77.77299 37043 ft 460 kts 16°
2026-05-05 03:48 36.96317 -77.74478 37038 ft 461 kts 16°
2026-05-05 03:49 37.02315 -77.71654 36810 ft 461 kts 16°
2026-05-05 03:49 37.05316 -77.70237 36553 ft 461 kts 16°
2026-05-05 03:49 37.08318 -77.68817 36290 ft 461 kts 16°
2026-05-05 03:50 37.11331 -77.67388 35364 ft 466 kts 16°
2026-05-05 03:50 37.14375 -77.65946 34385 ft 472 kts 16°
2026-05-05 03:50 37.17459 -77.64488 33388 ft 473 kts 16°
2026-05-05 03:50 37.20524 -77.63036 32278 ft 468 kts 16°
2026-05-05 03:51 37.23554 -77.61596 31108 ft 464 kts 16°
2026-05-05 03:51 37.26541 -77.60173 29990 ft 459 kts 16°
2026-05-05 03:51 37.29528 -77.58747 28612 ft 456 kts 16°
2026-05-05 03:51 37.32484 -77.57336 27328 ft 452 kts 17°
2026-05-05 03:52 37.35392 -77.55946 26576 ft 441 kts 17°
2026-05-05 03:52 37.38259 -77.54576 25776 ft 441 kts 17°
2026-05-05 03:52 37.41121 -77.53215 24974 ft 440 kts 17°
2026-05-05 03:52 37.43983 -77.51849 24183 ft 439 kts 17°
2026-05-05 03:53 37.46834 -77.50487 23361 ft 438 kts 17°
2026-05-05 03:53 37.49670 -77.49132 22560 ft 435 kts 17°
2026-05-05 03:53 37.52475 -77.47791 22209 ft 423 kts 17°
2026-05-05 03:53 37.55171 -77.46498 22032 ft 409 kts 17°
2026-05-05 03:54 37.57803 -77.45235 21768 ft 399 kts 16°
2026-05-05 03:54 37.60438 -77.44265 21507 ft 392 kts
2026-05-05 03:54 37.63076 -77.43466 21266 ft 390 kts
2026-05-05 03:54 37.65711 -77.42659 20962 ft 388 kts
2026-05-05 03:55 37.68291 -77.41858 20590 ft 386 kts
2026-05-05 03:55 37.70886 -77.41053 20207 ft 383 kts
2026-05-05 03:55 37.73472 -77.40251 19833 ft 381 kts
2026-05-05 03:55 37.76038 -77.39459 19461 ft 379 kts
2026-05-05 03:56 37.78591 -77.38673 19087 ft 377 kts
2026-05-05 03:56 37.81132 -77.37891 18714 ft 375 kts
2026-05-05 03:56 37.83655 -77.37111 18345 ft 373 kts
2026-05-05 03:56 37.86133 -77.36347 18010 ft 371 kts
2026-05-05 03:57 37.88666 -77.35565 17642 ft 368 kts
2026-05-05 03:57 37.91144 -77.34797 17279 ft 365 kts
2026-05-05 03:57 37.93570 -77.34051 16912 ft 362 kts
2026-05-05 03:57 37.96007 -77.33301 16563 ft 359 kts
2026-05-05 03:58 37.98423 -77.32554 16211 ft 356 kts
2026-05-05 03:58 38.00819 -77.31814 15847 ft 353 kts
2026-05-05 03:58 38.03198 -77.31080 15500 ft 350 kts
2026-05-05 03:58 38.05551 -77.30351 15155 ft 347 kts
2026-05-05 03:59 38.07893 -77.29626 14811 ft 344 kts
2026-05-05 03:59 38.10211 -77.28905 14472 ft 342 kts
2026-05-05 03:59 38.12511 -77.28183 14139 ft 339 kts
2026-05-05 03:59 38.14791 -77.27465 13799 ft 336 kts
2026-05-05 04:00 38.17051 -77.26753 13445 ft 334 kts
2026-05-05 04:00 38.19299 -77.26043 13116 ft 332 kts
2026-05-05 04:00 38.21533 -77.25306 12827 ft 332 kts 10°
2026-05-05 04:00 38.23752 -77.24499 12574 ft 332 kts 11°
2026-05-05 04:01 38.25962 -77.23653 12305 ft 331 kts 12°
2026-05-05 04:01 38.28158 -77.22799 12045 ft 330 kts 12°
2026-05-05 04:01 38.30347 -77.21947 11794 ft 329 kts 12°
2026-05-05 04:01 38.32537 -77.21099 11540 ft 328 kts 12°
2026-05-05 04:02 38.34709 -77.20266 11282 ft 327 kts 12°
2026-05-05 04:02 38.36893 -77.19435 11040 ft 326 kts 12°
2026-05-05 04:02 38.38332 -77.18888 10933 ft 325 kts 12°
2026-05-05 04:02 38.40509 -77.18058 10852 ft 326 kts 12°
2026-05-05 04:03 38.42679 -77.17220 10746 ft 326 kts 12°
2026-05-05 04:03 38.44847 -77.16378 10641 ft 326 kts 12°
2026-05-05 04:03 38.46995 -77.15543 10540 ft 325 kts 12°
2026-05-05 04:03 38.49179 -77.14697 10429 ft 325 kts 12°
2026-05-05 04:04 38.51339 -77.13862 10322 ft 322 kts 12°
2026-05-05 04:04 38.53163 -77.13152 10204 ft 305 kts 12°
2026-05-05 04:04 38.55145 -77.12376 9841 ft 293 kts 12°
2026-05-05 04:04 38.57067 -77.11628 9948 ft 289 kts 12°
2026-05-05 04:05 38.59000 -77.10886 9800 ft 291 kts 12°
2026-05-05 04:05 38.60931 -77.10145 9467 ft 289 kts 12°
2026-05-05 04:05 38.62852 -77.09398 9167 ft 288 kts 12°
2026-05-05 04:05 38.64767 -77.08652 8879 ft 287 kts 12°
2026-05-05 04:06 38.66675 -77.07914 8594 ft 286 kts 12°
2026-05-05 04:06 38.68589 -77.07213 8300 ft 284 kts
2026-05-05 04:06 38.70529 -77.06921 8011 ft 280 kts 359°
2026-05-05 04:06 38.72462 -77.06729 7725 ft 279 kts 359°
2026-05-05 04:07 38.74404 -77.06540 7443 ft 278 kts 358°
2026-05-05 04:07 38.76278 -77.06735 7179 ft 271 kts 342°
2026-05-05 04:07 38.78025 -77.07549 6914 ft 265 kts 328°
2026-05-05 04:07 38.79571 -77.08789 6640 ft 262 kts 323°
2026-05-05 04:08 38.81123 -77.10073 6372 ft 262 kts 323°
2026-05-05 04:08 38.82639 -77.11316 6101 ft 262 kts 322°
2026-05-05 04:08 38.84030 -77.12785 5736 ft 259 kts 312°
2026-05-05 04:08 38.85341 -77.14409 5271 ft 258 kts 312°
2026-05-05 04:09 38.86608 -77.15984 4854 ft 257 kts 311°
2026-05-05 04:09 38.87889 -77.17576 4418 ft 256 kts 311°
2026-05-05 04:09 38.89166 -77.19169 3983 ft 255 kts 311°
2026-05-05 04:09 38.90464 -77.20726 3550 ft 256 kts 318°
2026-05-05 04:10 38.92126 -77.21514 3334 ft 259 kts 352°
2026-05-05 04:10 38.93843 -77.21029 3196 ft 250 kts 26°
2026-05-05 04:10 38.95072 -77.19538 3122 ft 244 kts 58°
2026-05-05 04:10 38.95753 -77.17594 3027 ft 234 kts 71°
2026-05-05 04:11 38.95867 -77.15614 2946 ft 215 kts 107°
2026-05-05 04:11 38.95247 -77.13959 2675 ft 203 kts 137°
2026-05-05 04:11 38.94228 -77.12789 2343 ft 191 kts 148°
2026-05-05 04:11 38.93243 -77.11771 2061 ft 169 kts 159°
2026-05-05 04:12 38.92254 -77.11125 1848 ft 153 kts 165°
2026-05-05 04:12 38.91363 -77.10461 1641 ft 149 kts 150°
2026-05-05 04:12 38.90706 -77.09397 1423 ft 154 kts 126°
2026-05-05 04:12 38.90390 -77.08081 1206 ft 154 kts 112°
2026-05-05 04:13 38.89944 -77.06876 963 ft 146 kts 131°
2026-05-05 04:13 38.89238 -77.05977 729 ft 142 kts 139°
2026-05-05 04:13 38.88547 -77.05077 552 ft 140 kts 137°
2026-05-05 04:13 38.87843 -77.04278 406 ft 133 kts 156°
2026-05-05 04:14 38.86974 -77.03975 220 ft 129 kts 175°
2026-05-05 04:14 38.86095 -77.03868 50 ft 126 kts 176°
2026-05-05 04:14 38.85302 -77.03793 23 ft 89 kts 175°
2026-05-05 04:14 38.84939 -77.03754 24 ft 22 kts 181°
2026-05-05 04:15 38.84883 -77.03864 24 ft 10 kts 287°
2026-05-05 04:15 38.84947 -77.03896 24 ft 13 kts 358°
2026-05-05 04:15 38.85052 -77.03906 24 ft 16 kts 356°
2026-05-05 04:15 38.85148 -77.03915 24 ft 14 kts 355°
2026-05-05 04:16 38.85253 -77.03924 24 ft 16 kts 356°
2026-05-05 04:16 38.85371 -77.03938 26 ft 16 kts 354°
2026-05-05 04:16 38.85483 -77.03949 24 ft 12 kts 355°
2026-05-05 04:16 38.85503 -77.03951 24 ft 0 kts 355°
2026-05-05 04:17 38.85515 -77.03952 24 ft 3 kts 356°
2026-05-05 04:17 38.85548 -77.03960 24 ft 7 kts 338°
2026-05-05 04:17 38.85554 -77.04023 26 ft 9 kts 252°
2026-05-05 04:18 38.85532 -77.04114 24 ft 10 kts 253°
2026-05-05 04:18 38.85509 -77.04203 25 ft 9 kts 253°
2026-05-05 04:18 38.85492 -77.04256 24 ft 5 kts 219°
2026-05-05 04:18 38.85464 -77.04246 24 ft 4 kts 160°
2026-05-05 04:19 38.85446 -77.04238 26 ft 2 kts 161°
2026-05-05 04:19 38.85440 -77.04236 24 ft 0 kts 161°